Year,Month,Day,Hour,Minute,Value (Times are PST for temperature in C)
2010,07,08,06,19,19.20
2010,07,08,06,20,19.20
2010,07,08,06,21,19.20
2010,07,08,06,22,19.30
2010,07,08,06,23,19.30
2010,07,08,06,24,19.30
2010,07,08,06,25,19.30
2010,07,08,06,26,19.40
2010,07,08,06,27,19.40
2010,07,08,06,28,19.50
2010,07,08,06,29,19.60
2010,07,08,06,30,19.60
2010,07,08,06,31,19.70
2010,07,08,06,32,19.80
2010,07,08,06,33,19.80
2010,07,08,06,34,19.90
2010,07,08,06,35,19.90
2010,07,08,06,36,20.00
2010,07,08,06,37,20.00
2010,07,08,06,38,20.10
2010,07,08,06,39,20.10
2010,07,08,06,40,20.10
2010,07,08,06,41,20.20
2010,07,08,06,42,20.20
2010,07,08,06,43,20.20
2010,07,08,06,44,20.30
2010,07,08,06,45,20.30
2010,07,08,06,46,20.30
2010,07,08,06,47,20.30
2010,07,08,06,48,20.30
2010,07,08,06,49,20.30
2010,07,08,06,50,20.40
2010,07,08,06,51,20.40
2010,07,08,06,52,20.40
2010,07,08,06,53,20.40
2010,07,08,06,54,20.40
2010,07,08,06,55,20.40
2010,07,08,06,56,20.40
2010,07,08,06,57,20.40
2010,07,08,06,58,20.40
2010,07,08,06,59,20.50
2010,07,08,07,00,20.50
2010,07,08,07,01,20.50
2010,07,08,07,02,20.50
2010,07,08,07,03,20.50
2010,07,08,07,04,20.60
2010,07,08,07,05,20.60
2010,07,08,07,06,20.60
2010,07,08,07,07,20.60
2010,07,08,07,08,20.70
2010,07,08,07,09,20.70
2010,07,08,07,10,20.80
2010,07,08,07,11,20.80
2010,07,08,07,12,20.90
2010,07,08,07,13,20.90
2010,07,08,07,14,21.00
2010,07,08,07,15,21.10
2010,07,08,07,16,21.10
2010,07,08,07,17,21.20
2010,07,08,07,18,21.20
2010,07,08,07,19,21.20
2010,07,08,07,20,21.30
2010,07,08,07,21,21.30
2010,07,08,07,22,21.40
2010,07,08,07,23,21.50
2010,07,08,07,24,21.50
2010,07,08,07,25,21.50
2010,07,08,07,26,21.60
2010,07,08,07,27,21.60
2010,07,08,07,28,21.60
2010,07,08,07,29,21.70
2010,07,08,07,30,21.70
2010,07,08,07,31,21.70
2010,07,08,07,32,21.80
2010,07,08,07,33,21.80
2010,07,08,07,34,21.80
2010,07,08,07,35,21.80
2010,07,08,07,36,21.80
2010,07,08,07,37,21.80
2010,07,08,07,38,21.80
2010,07,08,07,39,21.80
2010,07,08,07,40,21.90
2010,07,08,07,41,21.90
2010,07,08,07,42,21.90
2010,07,08,07,43,22.00
2010,07,08,07,44,22.00
2010,07,08,07,45,22.00
2010,07,08,07,46,22.00
2010,07,08,07,47,22.10
2010,07,08,07,48,22.10
2010,07,08,07,49,22.10
2010,07,08,07,50,22.10
2010,07,08,07,51,22.10
2010,07,08,07,52,22.20
2010,07,08,07,53,22.20
2010,07,08,07,54,22.30
2010,07,08,07,55,22.30
2010,07,08,07,56,22.40
2010,07,08,07,57,22.40
2010,07,08,07,58,22.50
2010,07,08,07,59,22.50
2010,07,08,08,00,22.50
2010,07,08,08,01,22.50
2010,07,08,08,02,22.60
2010,07,08,08,03,22.60
2010,07,08,08,04,22.60
2010,07,08,08,05,22.60
2010,07,08,08,06,22.70
2010,07,08,08,07,22.70
2010,07,08,08,08,22.70
2010,07,08,08,09,22.70
2010,07,08,08,10,22.70
2010,07,08,08,11,22.80
2010,07,08,08,12,22.80
2010,07,08,08,13,22.80
2010,07,08,08,14,22.90
2010,07,08,08,15,22.90
2010,07,08,08,16,22.90
2010,07,08,08,17,22.90
2010,07,08,08,18,22.90
2010,07,08,08,19,22.90
2010,07,08,08,20,23.00
2010,07,08,08,21,23.00
2010,07,08,08,22,23.10
2010,07,08,08,23,23.10
2010,07,08,08,24,23.20
2010,07,08,08,25,23.20
2010,07,08,08,26,23.30
2010,07,08,08,27,23.30
2010,07,08,08,28,23.40
2010,07,08,08,29,23.40
2010,07,08,08,30,23.40
2010,07,08,08,31,23.40
2010,07,08,08,32,23.40
2010,07,08,08,33,23.40
2010,07,08,08,34,23.40
2010,07,08,08,35,23.40
2010,07,08,08,36,23.50
2010,07,08,08,37,23.50
2010,07,08,08,38,23.60
2010,07,08,08,39,23.60
2010,07,08,08,40,23.70
2010,07,08,08,41,23.70
2010,07,08,08,42,23.70
2010,07,08,08,43,23.80
2010,07,08,08,44,23.80
2010,07,08,08,45,23.80
2010,07,08,08,46,23.80
2010,07,08,08,47,23.90
2010,07,08,08,48,23.90
2010,07,08,08,49,23.90
2010,07,08,08,50,23.90
2010,07,08,08,51,23.90
2010,07,08,08,52,24.00
2010,07,08,08,53,24.00
2010,07,08,08,54,24.10
2010,07,08,08,55,24.10
2010,07,08,08,56,24.10
2010,07,08,08,57,24.10
2010,07,08,08,58,24.20
2010,07,08,08,59,24.20
2010,07,08,09,00,24.20
2010,07,08,09,01,24.30
2010,07,08,09,02,24.30
2010,07,08,09,03,24.30
2010,07,08,09,04,24.30
2010,07,08,09,05,24.30
2010,07,08,09,06,24.30
2010,07,08,09,07,24.40
2010,07,08,09,08,24.40
2010,07,08,09,09,24.40
2010,07,08,09,10,24.40
2010,07,08,09,11,24.40
2010,07,08,09,12,24.50
2010,07,08,09,13,24.50
2010,07,08,09,14,24.50
2010,07,08,09,15,24.60
2010,07,08,09,16,24.60
2010,07,08,09,17,24.60
2010,07,08,09,18,24.60
2010,07,08,09,19,24.70
2010,07,08,09,20,24.60
2010,07,08,09,21,24.70
2010,07,08,09,22,24.70
2010,07,08,09,23,24.70
2010,07,08,09,24,24.70
2010,07,08,09,25,24.70
2010,07,08,09,26,24.70
2010,07,08,09,27,24.80
2010,07,08,09,28,24.80
2010,07,08,09,29,24.80
2010,07,08,09,30,24.80
2010,07,08,09,31,24.90
2010,07,08,09,32,25.00
2010,07,08,09,33,25.10
2010,07,08,09,34,25.10
2010,07,08,09,35,25.20
2010,07,08,09,36,25.20
2010,07,08,09,37,25.30
2010,07,08,09,38,25.30
2010,07,08,09,39,25.30
2010,07,08,09,40,25.30
2010,07,08,09,41,25.30
2010,07,08,09,42,25.30
2010,07,08,09,43,25.40
2010,07,08,09,44,25.40
2010,07,08,09,45,25.50
2010,07,08,09,46,25.60
2010,07,08,09,47,25.70
2010,07,08,09,48,25.80
2010,07,08,09,49,25.90
2010,07,08,09,50,25.90
2010,07,08,09,51,25.90
2010,07,08,09,52,26.00
2010,07,08,09,53,26.10
2010,07,08,09,54,26.10
2010,07,08,09,55,26.20
2010,07,08,09,56,26.20
2010,07,08,09,57,26.30
2010,07,08,09,58,26.30
2010,07,08,09,59,26.30
2010,07,08,10,00,26.30
2010,07,08,10,01,26.30
2010,07,08,10,02,26.30
2010,07,08,10,03,26.30
2010,07,08,10,04,26.40
2010,07,08,10,05,26.40
2010,07,08,10,06,26.40
2010,07,08,10,07,26.30
2010,07,08,10,08,26.30
2010,07,08,10,09,26.30
2010,07,08,10,10,26.30
2010,07,08,10,11,26.30
2010,07,08,10,12,26.30
2010,07,08,10,13,26.20
2010,07,08,10,14,26.20
2010,07,08,10,15,26.20
2010,07,08,10,16,26.20
2010,07,08,10,17,26.20
2010,07,08,10,18,26.30
2010,07,08,10,19,26.30
2010,07,08,10,20,26.30
2010,07,08,10,21,26.20
2010,07,08,10,22,26.20
2010,07,08,10,23,26.20
2010,07,08,10,24,26.30
2010,07,08,10,25,26.30
2010,07,08,10,26,26.30
2010,07,08,10,27,26.30
2010,07,08,10,28,26.30
2010,07,08,10,29,26.30
2010,07,08,10,30,26.30
2010,07,08,10,31,26.30
2010,07,08,10,32,26.30
2010,07,08,10,33,26.30
2010,07,08,10,34,26.30
2010,07,08,10,35,26.40
2010,07,08,10,36,26.40
2010,07,08,10,37,26.40
2010,07,08,10,38,26.40
2010,07,08,10,39,26.50
2010,07,08,10,40,26.50
2010,07,08,10,41,26.70
2010,07,08,10,42,26.70
2010,07,08,10,43,26.80
2010,07,08,10,44,26.90
2010,07,08,10,45,27.00
2010,07,08,10,46,27.10
2010,07,08,10,47,27.20
2010,07,08,10,48,27.20
2010,07,08,10,49,27.20
2010,07,08,10,50,27.30
2010,07,08,10,51,27.30
2010,07,08,10,52,27.30
2010,07,08,10,53,27.40
2010,07,08,10,54,27.50
2010,07,08,10,55,27.50
2010,07,08,10,56,27.60
2010,07,08,10,57,27.60
2010,07,08,10,58,27.70
2010,07,08,10,59,27.70
2010,07,08,11,00,27.70
2010,07,08,11,01,27.70
2010,07,08,11,02,27.70
2010,07,08,11,03,27.70
2010,07,08,11,04,27.60
2010,07,08,11,05,27.60
2010,07,08,11,06,27.70
2010,07,08,11,07,27.70
2010,07,08,11,08,27.70
2010,07,08,11,09,27.80
2010,07,08,11,10,27.80
2010,07,08,11,11,27.90
2010,07,08,11,12,28.00
2010,07,08,11,13,28.00
2010,07,08,11,14,28.00
2010,07,08,11,15,28.10
2010,07,08,11,16,28.10
2010,07,08,11,17,28.10
2010,07,08,11,18,28.10
2010,07,08,11,19,28.10
2010,07,08,11,20,28.10
2010,07,08,11,21,28.20
2010,07,08,11,22,28.20
2010,07,08,11,23,28.20
2010,07,08,11,24,28.10
2010,07,08,11,25,28.10
2010,07,08,11,26,28.10
2010,07,08,11,27,28.10
2010,07,08,11,28,28.00
2010,07,08,11,29,27.90
2010,07,08,11,30,28.00
2010,07,08,11,31,28.10
2010,07,08,11,32,28.10
2010,07,08,11,33,28.10
2010,07,08,11,34,28.10
2010,07,08,11,35,28.00
2010,07,08,11,36,28.00
2010,07,08,11,37,28.10
2010,07,08,11,38,28.10
2010,07,08,11,39,28.10
2010,07,08,11,40,28.10
2010,07,08,11,41,28.10
2010,07,08,11,42,28.10
2010,07,08,11,43,28.10
2010,07,08,11,44,28.10
2010,07,08,11,45,28.20
2010,07,08,11,46,28.20
2010,07,08,11,47,28.30
2010,07,08,11,48,28.20
2010,07,08,11,49,28.20
2010,07,08,11,50,28.20
2010,07,08,11,51,28.20
2010,07,08,11,52,28.20
2010,07,08,11,53,28.20
2010,07,08,11,54,28.30
2010,07,08,11,55,28.30
2010,07,08,11,56,28.30
2010,07,08,11,57,28.30
2010,07,08,11,58,28.40
2010,07,08,11,59,28.40
2010,07,08,12,00,28.30
2010,07,08,12,01,28.30
2010,07,08,12,02,28.40
2010,07,08,12,03,28.40
2010,07,08,12,04,28.40
2010,07,08,12,05,28.40
2010,07,08,12,06,28.50
2010,07,08,12,07,28.50
2010,07,08,12,08,28.50
2010,07,08,12,09,28.60
2010,07,08,12,10,28.60
2010,07,08,12,11,28.60
2010,07,08,12,12,28.50
2010,07,08,12,13,28.50
2010,07,08,12,14,28.50
2010,07,08,12,15,28.50
2010,07,08,12,16,28.40
2010,07,08,12,17,28.50
2010,07,08,12,18,28.50
2010,07,08,12,19,28.60
2010,07,08,12,20,28.50
2010,07,08,12,21,28.40
2010,07,08,12,22,28.40
2010,07,08,12,23,28.40
2010,07,08,12,24,28.50
2010,07,08,12,25,28.50
2010,07,08,12,26,28.50
2010,07,08,12,27,28.40
2010,07,08,12,28,28.30
2010,07,08,12,29,28.30
2010,07,08,12,30,28.40
2010,07,08,12,31,28.50
2010,07,08,12,32,28.60
2010,07,08,12,33,28.80
2010,07,08,12,34,28.90
2010,07,08,12,35,29.00
2010,07,08,12,36,29.10
2010,07,08,12,37,29.20
2010,07,08,12,38,29.20
2010,07,08,12,39,29.30
2010,07,08,12,40,29.30
2010,07,08,12,41,29.40
2010,07,08,12,42,29.50
2010,07,08,12,43,29.50
2010,07,08,12,44,29.60
2010,07,08,12,45,29.60
2010,07,08,12,46,29.60
2010,07,08,12,47,29.70
2010,07,08,12,48,29.80
2010,07,08,12,49,29.90
2010,07,08,12,50,30.00
2010,07,08,12,51,30.10
2010,07,08,12,52,30.10
2010,07,08,12,53,30.20
2010,07,08,12,54,30.30
2010,07,08,12,55,30.30
2010,07,08,12,56,30.40
2010,07,08,12,57,30.60
2010,07,08,12,58,30.60
2010,07,08,12,59,30.70
2010,07,08,13,00,30.80
2010,07,08,13,01,30.80
2010,07,08,13,02,30.80
2010,07,08,13,03,30.70
2010,07,08,13,04,30.70
2010,07,08,13,05,30.60
2010,07,08,13,06,30.60
2010,07,08,13,07,30.60
2010,07,08,13,08,30.60
2010,07,08,13,09,30.50
2010,07,08,13,10,30.40
2010,07,08,13,11,30.40
2010,07,08,13,12,30.40
2010,07,08,13,13,30.50
2010,07,08,13,14,30.50
2010,07,08,13,15,30.40
2010,07,08,13,16,30.40
2010,07,08,13,17,30.30
2010,07,08,13,18,30.40
2010,07,08,13,19,30.40
2010,07,08,13,20,30.60
2010,07,08,13,21,30.70
2010,07,08,13,22,30.80
2010,07,08,13,23,30.90
2010,07,08,13,24,30.90
2010,07,08,13,25,31.00
2010,07,08,13,26,31.10
2010,07,08,13,27,31.10
2010,07,08,13,28,31.20
2010,07,08,13,29,31.20
2010,07,08,13,30,31.30
2010,07,08,13,31,31.30
2010,07,08,13,32,31.30
2010,07,08,13,33,31.20
2010,07,08,13,34,31.20
2010,07,08,13,35,31.20
2010,07,08,13,36,31.20
2010,07,08,13,37,31.20
2010,07,08,13,38,31.20
2010,07,08,13,39,31.30
2010,07,08,13,40,31.30
2010,07,08,13,41,31.40
2010,07,08,13,42,31.40
2010,07,08,13,43,31.50
2010,07,08,13,44,31.60
2010,07,08,13,45,31.80
2010,07,08,13,46,31.80
2010,07,08,13,47,31.80
2010,07,08,13,48,31.60
2010,07,08,13,49,31.30
2010,07,08,13,50,31.00
2010,07,08,13,51,30.70
2010,07,08,13,52,30.40
2010,07,08,13,53,30.30
2010,07,08,13,54,30.30
2010,07,08,13,55,30.30
2010,07,08,13,56,30.30
2010,07,08,13,57,30.20
2010,07,08,13,58,30.30
2010,07,08,13,59,30.30
2010,07,08,14,00,30.30
2010,07,08,14,01,30.40
2010,07,08,14,02,30.50
2010,07,08,14,03,30.60
2010,07,08,14,04,30.60
2010,07,08,14,05,30.70
2010,07,08,14,06,30.80
2010,07,08,14,07,30.90
2010,07,08,14,08,30.90
2010,07,08,14,09,31.00
2010,07,08,14,10,31.10
2010,07,08,14,11,31.20
2010,07,08,14,12,31.20
2010,07,08,14,13,31.30
2010,07,08,14,14,31.40
2010,07,08,14,15,31.50
2010,07,08,14,16,31.60
2010,07,08,14,17,31.70
2010,07,08,14,18,31.70
2010,07,08,14,19,31.70
2010,07,08,14,20,31.70
2010,07,08,14,21,31.80
2010,07,08,14,22,31.80
2010,07,08,14,23,31.80
2010,07,08,14,24,31.80
2010,07,08,14,25,31.80
2010,07,08,14,26,31.90
2010,07,08,14,27,31.90
2010,07,08,14,28,32.00
2010,07,08,14,29,32.10
2010,07,08,14,30,32.10
2010,07,08,14,31,32.10
2010,07,08,14,32,32.00
2010,07,08,14,33,32.00
2010,07,08,14,34,31.90
2010,07,08,14,35,31.90
2010,07,08,14,36,32.00
2010,07,08,14,37,32.20
2010,07,08,14,38,32.30
2010,07,08,14,39,32.40
2010,07,08,14,40,32.60
2010,07,08,14,41,32.70
2010,07,08,14,42,32.90
2010,07,08,14,43,33.00
2010,07,08,14,44,33.10
2010,07,08,14,45,33.10
2010,07,08,14,46,33.10
2010,07,08,14,47,33.10
2010,07,08,14,48,33.20
2010,07,08,14,49,33.00
2010,07,08,14,50,32.90
2010,07,08,14,51,32.90
2010,07,08,14,52,32.90
2010,07,08,14,53,33.00
2010,07,08,14,54,33.00
2010,07,08,14,55,32.90
2010,07,08,14,56,32.90
2010,07,08,14,57,32.80
2010,07,08,14,58,32.80
2010,07,08,14,59,32.80
2010,07,08,15,00,32.80
2010,07,08,15,01,32.80
2010,07,08,15,02,32.90
2010,07,08,15,03,32.80
2010,07,08,15,04,32.60
2010,07,08,15,05,32.60
2010,07,08,15,06,32.60
2010,07,08,15,07,32.60
2010,07,08,15,08,32.60
2010,07,08,15,09,32.50
2010,07,08,15,10,32.30
2010,07,08,15,11,32.10
2010,07,08,15,12,31.90
2010,07,08,15,13,31.90
2010,07,08,15,14,31.90
2010,07,08,15,15,31.80
2010,07,08,15,16,31.80
2010,07,08,15,17,31.80
2010,07,08,15,18,31.70
2010,07,08,15,19,31.70
2010,07,08,15,20,31.60
2010,07,08,15,21,31.50
2010,07,08,15,22,31.40
2010,07,08,15,23,31.40
2010,07,08,15,24,31.40
2010,07,08,15,25,31.30
2010,07,08,15,26,31.30
2010,07,08,15,27,31.40
2010,07,08,15,28,31.50
2010,07,08,15,29,31.50
2010,07,08,15,30,31.50
2010,07,08,15,31,31.60
2010,07,08,15,32,31.50
2010,07,08,15,33,31.50
2010,07,08,15,34,31.50
2010,07,08,15,35,31.40
2010,07,08,15,36,31.40
2010,07,08,15,37,31.40
2010,07,08,15,38,31.40
2010,07,08,15,39,31.50
2010,07,08,15,40,31.60
2010,07,08,15,41,31.50
2010,07,08,15,42,31.50
2010,07,08,15,43,31.40
2010,07,08,15,44,31.40
2010,07,08,15,45,31.40
2010,07,08,15,46,31.50
2010,07,08,15,47,31.60
2010,07,08,15,48,31.70
2010,07,08,15,49,31.80
2010,07,08,15,50,31.90
2010,07,08,15,51,32.00
2010,07,08,15,52,32.10
2010,07,08,15,53,32.20
2010,07,08,15,54,32.30
2010,07,08,15,55,32.40
2010,07,08,15,56,32.50
2010,07,08,15,57,32.60
2010,07,08,15,58,32.60
2010,07,08,15,59,32.70
2010,07,08,16,00,32.70
2010,07,08,16,01,32.70
2010,07,08,16,02,32.60
2010,07,08,16,03,32.60
2010,07,08,16,04,32.40
2010,07,08,16,05,32.40
2010,07,08,16,06,32.30
2010,07,08,16,07,32.30
2010,07,08,16,08,32.30
2010,07,08,16,09,32.20
2010,07,08,16,10,32.20
2010,07,08,16,11,32.30
2010,07,08,16,12,32.40
2010,07,08,16,13,32.40
2010,07,08,16,14,32.40
2010,07,08,16,15,32.40
2010,07,08,16,16,32.40
2010,07,08,16,17,32.50
2010,07,08,16,18,32.50
2010,07,08,16,19,32.60
2010,07,08,16,20,32.60
2010,07,08,16,21,32.50
2010,07,08,16,22,32.50
2010,07,08,16,23,32.30
2010,07,08,16,24,32.20
2010,07,08,16,25,32.20
2010,07,08,16,26,32.00
2010,07,08,16,27,31.90
2010,07,08,16,28,31.90
2010,07,08,16,29,31.80
2010,07,08,16,30,31.80
2010,07,08,16,31,31.70
2010,07,08,16,32,31.60
2010,07,08,16,33,31.50
2010,07,08,16,34,31.40
2010,07,08,16,35,31.30
2010,07,08,16,36,31.20
2010,07,08,16,37,31.20
2010,07,08,16,38,31.20
2010,07,08,16,39,31.20
2010,07,08,16,40,31.20
2010,07,08,16,41,31.20
2010,07,08,16,42,31.20
2010,07,08,16,43,31.20
2010,07,08,16,44,31.20
2010,07,08,16,45,31.20
2010,07,08,16,46,31.30
2010,07,08,16,47,31.30
2010,07,08,16,48,31.30
2010,07,08,16,49,31.30
2010,07,08,16,50,31.20
2010,07,08,16,51,31.20
2010,07,08,16,52,31.20
2010,07,08,16,53,31.30
2010,07,08,16,54,31.50
2010,07,08,16,55,31.60
2010,07,08,16,56,31.80
2010,07,08,16,57,31.90
2010,07,08,16,58,32.10
2010,07,08,16,59,32.20
2010,07,08,17,00,32.30
2010,07,08,17,01,32.40
2010,07,08,17,02,32.60
2010,07,08,17,03,32.70
2010,07,08,17,04,32.80
2010,07,08,17,05,32.80
2010,07,08,17,06,32.80
2010,07,08,17,07,32.80
2010,07,08,17,08,32.80
2010,07,08,17,09,32.80
2010,07,08,17,10,32.70
2010,07,08,17,11,32.60
2010,07,08,17,12,32.60
2010,07,08,17,13,32.60
2010,07,08,17,14,32.60
2010,07,08,17,15,32.50
2010,07,08,17,16,32.50
2010,07,08,17,17,32.50
2010,07,08,17,18,32.50
2010,07,08,17,19,32.60
2010,07,08,17,20,32.60
2010,07,08,17,21,32.70
2010,07,08,17,22,32.70
2010,07,08,17,23,32.70
2010,07,08,17,24,32.70
2010,07,08,17,25,32.70
2010,07,08,17,26,32.70
2010,07,08,17,27,32.70
2010,07,08,17,28,32.70
2010,07,08,17,29,32.70
2010,07,08,17,30,32.70
2010,07,08,17,31,32.80
2010,07,08,17,32,32.80
2010,07,08,17,33,32.90
2010,07,08,17,34,32.90
2010,07,08,17,35,32.90
2010,07,08,17,36,32.90
2010,07,08,17,37,32.90
2010,07,08,17,38,32.90
2010,07,08,17,39,32.90
2010,07,08,17,40,32.90
2010,07,08,17,41,32.90
2010,07,08,17,42,32.90
2010,07,08,17,43,32.90
2010,07,08,17,44,32.90
2010,07,08,17,45,33.00
2010,07,08,17,46,33.00
2010,07,08,17,47,33.00
2010,07,08,17,48,33.10
2010,07,08,17,49,33.10
2010,07,08,17,50,33.00
2010,07,08,17,51,33.00
2010,07,08,17,52,33.00
2010,07,08,17,53,33.00
2010,07,08,17,54,33.00
2010,07,08,17,55,33.00
2010,07,08,17,56,32.90
2010,07,08,17,57,32.90
2010,07,08,17,58,32.80
2010,07,08,17,59,32.80
2010,07,08,18,00,32.80
2010,07,08,18,01,32.80
2010,07,08,18,02,32.80
2010,07,08,18,03,32.80
2010,07,08,18,04,32.80
2010,07,08,18,05,32.70
2010,07,08,18,06,32.80
2010,07,08,18,07,32.80
2010,07,08,18,08,32.80
2010,07,08,18,09,32.80
2010,07,08,18,10,32.80
2010,07,08,18,11,32.80
2010,07,08,18,12,32.70
2010,07,08,18,13,32.70
2010,07,08,18,14,32.70
2010,07,08,18,15,32.70
2010,07,08,18,16,32.70
2010,07,08,18,17,32.60
2010,07,08,18,18,32.50
2010,07,08,18,19,32.50
2010,07,08,18,20,32.50
2010,07,08,18,21,32.50
2010,07,08,18,22,32.50
2010,07,08,18,23,32.50
2010,07,08,18,24,32.50
2010,07,08,18,25,32.60
2010,07,08,18,26,32.60
2010,07,08,18,27,32.60
2010,07,08,18,28,32.60
2010,07,08,18,29,32.60
2010,07,08,18,30,32.60
2010,07,08,18,31,32.60
2010,07,08,18,32,32.60
2010,07,08,18,33,32.60
2010,07,08,18,34,32.60
2010,07,08,18,35,32.70
2010,07,08,18,36,32.60
2010,07,08,18,37,32.60
2010,07,08,18,38,32.60
2010,07,08,18,39,32.60
2010,07,08,18,40,32.60
2010,07,08,18,41,32.60
2010,07,08,18,42,32.50
2010,07,08,18,43,32.50
2010,07,08,18,44,32.50
2010,07,08,18,45,32.40
2010,07,08,18,46,32.40
2010,07,08,18,47,32.30
2010,07,08,18,48,32.30
2010,07,08,18,49,32.30
2010,07,08,18,50,32.20
2010,07,08,18,51,32.20
2010,07,08,18,52,32.20
2010,07,08,18,53,32.10
2010,07,08,18,54,32.10
2010,07,08,18,55,32.00
2010,07,08,18,56,32.00
2010,07,08,18,57,32.00
2010,07,08,18,58,31.90
2010,07,08,18,59,31.90
2010,07,08,19,00,31.90
2010,07,08,19,01,31.90
2010,07,08,19,02,31.90
2010,07,08,19,03,31.90
2010,07,08,19,04,31.80
2010,07,08,19,05,31.80
2010,07,08,19,06,31.80
2010,07,08,19,07,31.80
2010,07,08,19,08,31.70
2010,07,08,19,09,31.70
2010,07,08,19,10,31.60
2010,07,08,19,11,31.60
2010,07,08,19,12,31.50
2010,07,08,19,13,31.50
2010,07,08,19,14,31.50
2010,07,08,19,15,31.50
2010,07,08,19,16,31.50
2010,07,08,19,17,31.60
2010,07,08,19,18,31.60
2010,07,08,19,19,31.60
2010,07,08,19,20,31.70
2010,07,08,19,21,31.60
2010,07,08,19,22,31.60
2010,07,08,19,23,31.50
2010,07,08,19,24,31.50
2010,07,08,19,25,31.50
2010,07,08,19,26,31.50
2010,07,08,19,27,31.40
2010,07,08,19,28,31.40
2010,07,08,19,29,31.30
2010,07,08,19,30,31.20
2010,07,08,19,31,31.20
2010,07,08,19,32,31.10
2010,07,08,19,33,31.10
2010,07,08,19,34,31.00
2010,07,08,19,35,31.00
2010,07,08,19,36,30.90
2010,07,08,19,37,30.80
2010,07,08,19,38,30.80
2010,07,08,19,39,30.70
2010,07,08,19,40,30.60
2010,07,08,19,41,30.60
2010,07,08,19,42,30.60
2010,07,08,19,43,30.50
2010,07,08,19,44,30.40
2010,07,08,19,45,30.40
2010,07,08,19,46,30.30
2010,07,08,19,47,30.20
2010,07,08,19,48,30.10
2010,07,08,19,49,30.10
2010,07,08,19,50,30.00
2010,07,08,19,51,29.90
2010,07,08,19,52,29.80
2010,07,08,19,53,29.80
2010,07,08,19,54,29.70
2010,07,08,19,55,29.60
2010,07,08,19,56,29.50
2010,07,08,19,57,29.40
2010,07,08,19,58,29.40
2010,07,08,19,59,29.30
2010,07,08,20,00,29.20
2010,07,08,20,01,29.00
2010,07,08,20,02,28.90
2010,07,08,20,03,28.80
2010,07,08,20,04,28.70
2010,07,08,20,05,28.50
2010,07,08,20,06,28.40
2010,07,08,20,07,28.30
2010,07,08,20,08,28.20
2010,07,08,20,09,28.10
2010,07,08,20,10,27.90
2010,07,08,20,11,27.80
2010,07,08,20,12,27.80
2010,07,08,20,13,27.70
2010,07,08,20,14,27.60
2010,07,08,20,15,27.50
2010,07,08,20,16,27.40
2010,07,08,20,17,27.30
2010,07,08,20,18,27.30
2010,07,08,20,19,27.20
2010,07,08,20,20,27.10
2010,07,08,20,21,27.00
2010,07,08,20,22,27.00
2010,07,08,20,23,26.90
2010,07,08,20,24,26.80
2010,07,08,20,25,26.70
2010,07,08,20,26,26.70
2010,07,08,20,27,26.60
2010,07,08,20,28,26.50
2010,07,08,20,29,26.40
2010,07,08,20,30,26.30
2010,07,08,20,31,26.30
2010,07,08,20,32,26.20
2010,07,08,20,33,26.10
2010,07,08,20,34,26.00
2010,07,08,20,35,25.90
2010,07,08,20,36,25.90
2010,07,08,20,37,25.90
2010,07,08,20,38,25.80
2010,07,08,20,39,25.70
2010,07,08,20,40,25.70
2010,07,08,20,41,25.60
2010,07,08,20,42,25.50
2010,07,08,20,43,25.50
2010,07,08,20,44,25.40
2010,07,08,20,45,25.40
2010,07,08,20,46,25.40
2010,07,08,20,47,25.40
2010,07,08,20,48,25.40
2010,07,08,20,49,25.30
2010,07,08,20,50,25.30
2010,07,08,20,51,25.30
2010,07,08,20,52,25.20
2010,07,08,20,53,25.20
2010,07,08,20,54,25.20
2010,07,08,20,55,25.10
2010,07,08,20,56,25.10
2010,07,08,20,57,25.00
2010,07,08,20,58,24.90
2010,07,08,20,59,24.90
2010,07,08,21,00,24.80
2010,07,08,21,01,24.80
2010,07,08,21,02,24.70
2010,07,08,21,03,24.70
2010,07,08,21,04,24.60
2010,07,08,21,05,24.60
2010,07,08,21,06,24.50
2010,07,08,21,07,24.50
2010,07,08,21,08,24.40
2010,07,08,21,09,24.40
2010,07,08,21,10,24.40
2010,07,08,21,11,24.30
2010,07,08,21,12,24.30
2010,07,08,21,13,24.30
2010,07,08,21,14,24.20
2010,07,08,21,15,24.20
2010,07,08,21,16,24.10
2010,07,08,21,17,24.00
2010,07,08,21,18,24.00
2010,07,08,21,19,23.90
2010,07,08,21,20,23.80
2010,07,08,21,21,23.80
2010,07,08,21,22,23.70
2010,07,08,21,23,23.60
2010,07,08,21,24,23.60
2010,07,08,21,25,23.50
2010,07,08,21,26,23.50
2010,07,08,21,27,23.40
2010,07,08,21,28,23.40
2010,07,08,21,29,23.40
2010,07,08,21,30,23.40
2010,07,08,21,31,23.40
2010,07,08,21,32,23.40
2010,07,08,21,33,23.40
2010,07,08,21,34,23.30
2010,07,08,21,35,23.30
2010,07,08,21,36,23.20
2010,07,08,21,37,23.20
2010,07,08,21,38,23.20
2010,07,08,21,39,23.10
2010,07,08,21,40,23.10
2010,07,08,21,41,23.10
2010,07,08,21,42,23.00
2010,07,08,21,43,23.00
2010,07,08,21,44,22.90
2010,07,08,21,45,22.80
2010,07,08,21,46,22.80
2010,07,08,21,47,22.70
2010,07,08,21,48,22.70
2010,07,08,21,49,22.60
2010,07,08,21,50,22.60
2010,07,08,21,51,22.50
2010,07,08,21,52,22.50
2010,07,08,21,53,22.40
2010,07,08,21,54,22.40
2010,07,08,21,55,22.40
2010,07,08,21,56,22.30
2010,07,08,21,57,22.30
2010,07,08,21,58,22.30
2010,07,08,21,59,22.30
2010,07,08,22,00,22.30
2010,07,08,22,01,22.30
2010,07,08,22,02,22.20
2010,07,08,22,03,22.20
2010,07,08,22,04,22.20
2010,07,08,22,05,22.20
2010,07,08,22,06,22.30
2010,07,08,22,07,22.30
2010,07,08,22,08,22.30
2010,07,08,22,09,22.30
2010,07,08,22,10,22.30
2010,07,08,22,11,22.30
2010,07,08,22,12,22.30
2010,07,08,22,13,22.20
2010,07,08,22,14,22.20
2010,07,08,22,15,22.20
2010,07,08,22,16,22.20
2010,07,08,22,17,22.20
2010,07,08,22,18,22.20
2010,07,08,22,19,22.20
2010,07,08,22,20,22.10
2010,07,08,22,21,22.10
2010,07,08,22,22,22.10
2010,07,08,22,23,22.10
2010,07,08,22,24,22.00
2010,07,08,22,25,22.00
2010,07,08,22,26,21.90
2010,07,08,22,27,21.90
2010,07,08,22,28,21.90
2010,07,08,22,29,21.80
2010,07,08,22,30,21.80
2010,07,08,22,31,21.80
2010,07,08,22,32,21.80
2010,07,08,22,33,21.80
2010,07,08,22,34,21.80
2010,07,08,22,35,21.80
2010,07,08,22,36,21.80
2010,07,08,22,37,21.80
2010,07,08,22,38,21.90
2010,07,08,22,39,21.90
2010,07,08,22,40,21.90
2010,07,08,22,41,21.90
2010,07,08,22,42,21.90
2010,07,08,22,43,22.00
2010,07,08,22,44,22.00
2010,07,08,22,45,22.00
2010,07,08,22,46,22.10
2010,07,08,22,47,22.10
2010,07,08,22,48,22.10
2010,07,08,22,49,22.10
2010,07,08,22,50,22.10
2010,07,08,22,51,22.10
2010,07,08,22,52,22.10
2010,07,08,22,53,22.10
2010,07,08,22,54,22.10
2010,07,08,22,55,22.10
2010,07,08,22,56,22.10
2010,07,08,22,57,22.10
2010,07,08,22,58,22.10
2010,07,08,22,59,22.10
2010,07,08,23,00,22.00
2010,07,08,23,01,22.00
2010,07,08,23,02,22.00
2010,07,08,23,03,22.00
2010,07,08,23,04,22.00
2010,07,08,23,05,22.00
2010,07,08,23,06,22.00
2010,07,08,23,07,22.00
2010,07,08,23,08,21.90
2010,07,08,23,09,21.90
2010,07,08,23,10,21.90
2010,07,08,23,11,21.80
2010,07,08,23,12,21.80
2010,07,08,23,13,21.70
2010,07,08,23,14,21.70
2010,07,08,23,15,21.70
2010,07,08,23,16,21.60
2010,07,08,23,17,21.60
2010,07,08,23,18,21.50
2010,07,08,23,19,21.50
2010,07,08,23,20,21.40
2010,07,08,23,21,21.40
2010,07,08,23,22,21.30
2010,07,08,23,23,21.30
2010,07,08,23,24,21.30
2010,07,08,23,25,21.30
2010,07,08,23,26,21.30
2010,07,08,23,27,21.20
2010,07,08,23,28,21.20
2010,07,08,23,29,21.20
2010,07,08,23,30,21.20
2010,07,08,23,31,21.20
2010,07,08,23,32,21.10
2010,07,08,23,33,21.10
2010,07,08,23,34,21.10
2010,07,08,23,35,21.00
2010,07,08,23,36,21.00
2010,07,08,23,37,20.90
2010,07,08,23,38,20.90